MET-2/21
1 22782U 93055A   05298.72893603  .00000134  00000-0  10747-3 0 03360
2 22782 082.5478 157.4508 0023857 116.3588 244.0024 13.83598375613620
OKEAN-4
1 23317U 94066A   05300.06009329  .00000243  00000-0  27271-4 0  7695
2 23317 082.5372 134.4371 0023896 064.0833 296.2859 14.82248912595449
NOAA-14
1 23455U 94089A   05300.15407026 -.00000090  00000-0 -23426-4 0  8364
2 23455 099.0746 350.5391 0009010 353.2097 006.8975 14.13605820558149
SICH-1
1 23657U 95046A   05299.89722178  .00000291  00000-0  34075-4 0  5740
2 23657 082.5257 275.4257 0025654 052.1367 308.2178 14.81252072547458
NOAA-15
1 25338U 98030A   05299.48616517  .00000028  00000-0  30294-4 0  2450
2 25338 098.5166 303.8423 0010473 342.0657 018.0159 14.24544721387447
RESURS
1 25394U 98043A   05299.88061904  .00000010  00000-0  22978-4 0  2141
2 25394 098.5251 005.2573 0002195 117.4904 242.6497 14.24083941379199
FENGYUN1
1 25730U 99025A   05298.96427997  .00000130  00000-0  94156-4 0 05594
2 25730 098.6148 295.5638 0015334 087.9626 272.3295 14.11802686332967
OKEAN-0
1 25860U 99039A   05300.12902622  .00000126  00000-0  26688-4 0  5745
2 25860 097.7481 320.1740 0001611 105.1441 254.9964 14.73303880337437
NOAA-16
1 26536U 00055A   05299.21576649  .00000177  00000-0  12095-3 0  5897
2 26536 099.0322 258.5210 0011214 060.5363 299.6918 14.12285189262559
NOAA-17
1 27453U 02032A   05299.43061550  .00000121  00000-0  72185-4 0  6119
2 27453 098.6483 010.8824 0012157 038.7861 321.4177 14.23715126173517
NOAA-18
1 28654U 05018A   05299.47242007  .00000457  00000-0  27854-3 0  2112
2 28654 098.7580 243.0983 0014362 160.3285 199.8434 14.10896362 22422
HUBBLE
1 20580U 90037B   05298.88441542  .00000437  00000-0  21312-4 0  4569
2 20580 028.4655 137.0943 0003861 217.6323 142.3995 14.99874212649881
UARS
1 21701U 91063B   05299.72904367  .00001438  00000-0  48961-4 0  5896
2 21701 056.9785 014.1041 0118460 123.9156 237.3213 15.31445540773326
PO-34
1 25520U 98064B   05300.06946171  .00000787  00000-0  29525-4 0  3075
2 25520 028.4569 150.4406 0005532 220.0224 139.9958 15.16488123386625
ISS
1 25544U 98067A   05300.30840278  .00084700  00000-0  57378-3 0  6304
2 25544 051.6424 303.8911 0001473 078.9654 114.9563 15.74273127396470
OO-38
1 26063U 00004C   05299.69976829 -.00000023  00000-0  12308-4 0  4700
2 26063 100.1946 183.6710 0037194 045.3610 315.0598 14.35738385301168
NO-45
1 26932U 01043D   05298.91353370 -.00000212  00000-0 -50416-4 0 01602
2 26932 067.0568 250.7679 0003598 265.0730 094.9938 14.29502574212488
